When you browse on this site, cookies collect data to enhance your experience and personalize the content and advertising you see.
Visit our Privacy Policy to learn more. By continuing to use the site, you agree to this use of cookies and data.
  • Em Portugal
  • Lista de países
  • Para 7 dias
  • Temperatura da água
  • Mapa do tempo
  • Widgets de tempo
  • user-avatar
    Iniciar Sessão

    Previsão horária em Grand Bassam

    Hoje, 28 Fevereiro, Sexta-feira

    Tempo Temperatura Precipitação Vento Pressão Humidade
    00:00 +29°C° 0 mm 3 m/s 757 mmHg 88%
    01:00 +29°C° 0 mm 3 m/s 756 mmHg 88%
    02:00 +29°C° 0 mm 4 m/s 756 mmHg 88%
    03:00 +29°C° 0 mm 4 m/s 756 mmHg 89%
    04:00 +28°C° 0 mm 3 m/s 756 mmHg 90%
    05:00 +28°C° 0 mm 3 m/s 756 mmHg 91%
    06:00 +28°C° 0 mm 2 m/s 757 mmHg 92%
    07:00 +29°C° 0.1 mm 2 m/s 757 mmHg 86%
    08:00 +30°C° 0.1 mm 2 m/s 758 mmHg 79%
    09:00 +32°C° 0.1 mm 2 m/s 759 mmHg 73%
    10:00 +33°C° 0 mm 3 m/s 758 mmHg 69%
    11:00 +34°C° 0 mm 3 m/s 758 mmHg 65%
    12:00 +35°C° 0 mm 3 m/s 758 mmHg 62%
    13:00 +35°C° 0.2 mm 4 m/s 757 mmHg 62%
    14:00 +35°C° 0.2 mm 4 m/s 756 mmHg 62%
    15:00 +35°C° 0.2 mm 4 m/s 756 mmHg 62%
    16:00 +34°C° 0 mm 4 m/s 756 mmHg 66%
    17:00 +33°C° 0 mm 4 m/s 756 mmHg 70%
    18:00 +32°C° 0 mm 4 m/s 756 mmHg 74%
    19:00 +30°C° 0 mm 4 m/s 756 mmHg 78%
    20:00 +30°C° 0 mm 3 m/s 757 mmHg 81%
    21:00 +29°C° 0 mm 3 m/s 758 mmHg 85%
    22:00 +29°C° 0 mm 3 m/s 758 mmHg 86%
    23:00 +29°C° 0 mm 4 m/s 757 mmHg 87%

    Amanhã, 29 Fevereiro, Sábado

    Tempo Temperatura Precipitação Vento Pressão Humidade
    00:00 +29°C° 0 mm 4 m/s 757 mmHg 88%
    01:00 +29°C° 0 mm 4 m/s 757 mmHg 88%
    02:00 +29°C° 0 mm 4 m/s 756 mmHg 89%
    03:00 +29°C° 0 mm 4 m/s 756 mmHg 89%
    04:00 +29°C° 0 mm 4 m/s 756 mmHg 90%
    05:00 +29°C° 0 mm 4 m/s 756 mmHg 90%
    06:00 +28°C° 0 mm 3 m/s 756 mmHg 91%
    07:00 +30°C° 0 mm 3 m/s 756 mmHg 85%
    08:00 +31°C° 0 mm 3 m/s 757 mmHg 79%
    09:00 +33°C° 0 mm 4 m/s 758 mmHg 73%
    10:00 +33°C° 0 mm 4 m/s 757 mmHg 70%
    11:00 +34°C° 0 mm 4 m/s 757 mmHg 68%
    12:00 +34°C° 0 mm 4 m/s 757 mmHg 65%
    13:00 +34°C° 0 mm 4 m/s 756 mmHg 66%
    14:00 +34°C° 0 mm 4 m/s 755 mmHg 66%
    15:00 +34°C° 0 mm 4 m/s 755 mmHg 66%
    16:00 +33°C° 0 mm 5 m/s 755 mmHg 70%
    17:00 +33°C° 0 mm 5 m/s 755 mmHg 75%
    18:00 +32°C° 0 mm 5 m/s 755 mmHg 79%
    19:00 +30°C° 0 mm 5 m/s 755 mmHg 81%
    20:00 +30°C° 0 mm 5 m/s 756 mmHg 83%
    21:00 +30°C° 0 mm 5 m/s 756 mmHg 85%
    22:00 +30°C° 0 mm 5 m/s 756 mmHg 86%
    23:00 +30°C° 0 mm 5 m/s 756 mmHg 86%

    Depois de amanhã, 1 Março, Domingo

    Tempo Temperatura Precipitação Vento Pressão Humidade
    00:00 +29°C° 0 mm 5 m/s 756 mmHg 87%
    01:00 +29°C° 0 mm 5 m/s 756 mmHg 87%
    02:00 +29°C° 0 mm 5 m/s 756 mmHg 88%
    03:00 +29°C° 0 mm 5 m/s 755 mmHg 88%
    04:00 +29°C° 0.1 mm 5 m/s 756 mmHg 87%
    05:00 +29°C° 0.1 mm 5 m/s 756 mmHg 87%
    06:00 +29°C° 0.1 mm 5 m/s 756 mmHg 86%
    07:00 +30°C° 0.1 mm 5 m/s 757 mmHg 83%
    08:00 +30°C° 0.1 mm 4 m/s 757 mmHg 80%
    09:00 +32°C° 0.1 mm 4 m/s 758 mmHg 77%
    10:00 +32°C° 0.1 mm 4 m/s 758 mmHg 74%
    11:00 +33°C° 0.1 mm 5 m/s 757 mmHg 72%
    12:00 +33°C° 0.1 mm 5 m/s 757 mmHg 69%
    13:00 +33°C° 0.1 mm 5 m/s 756 mmHg 68%
    14:00 +34°C° 0.1 mm 5 m/s 756 mmHg 66%
    15:00 +34°C° 0.1 mm 5 m/s 755 mmHg 65%
    16:00 +33°C° 0.1 mm 4 m/s 755 mmHg 68%
    17:00 +33°C° 0.1 mm 4 m/s 755 mmHg 70%
    18:00 +32°C° 0.1 mm 4 m/s 755 mmHg 73%
    19:00 +30°C° 0.4 mm 3 m/s 756 mmHg 77%
    20:00 +30°C° 0.4 mm 3 m/s 757 mmHg 81%
    21:00 +29°C° 0.4 mm 2 m/s 757 mmHg 85%
    22:00 +29°C° 0.1 mm 3 m/s 758 mmHg 86%
    23:00 +29°C° 0.1 mm 3 m/s 758 mmHg 87%

    2 Março, Segunda-feira

    Tempo Temperatura Precipitação Vento Pressão Humidade
    00:00 +29°C° 0.1 mm 3 m/s 758 mmHg 88%
    01:00 +28°C° 0 mm 3 m/s 757 mmHg 89%
    02:00 +28°C° 0 mm 3 m/s 757 mmHg 90%
    03:00 +28°C° 0 mm 2 m/s 756 mmHg 91%
    04:00 +28°C° 0.1 mm 3 m/s 756 mmHg 91%
    05:00 +28°C° 0.1 mm 3 m/s 756 mmHg 90%
    06:00 +28°C° 0.1 mm 3 m/s 757 mmHg 90%
    07:00 +29°C° 0 mm 3 m/s 757 mmHg 84%
    08:00 +30°C° 0 mm 4 m/s 758 mmHg 78%
    09:00 +32°C° 0 mm 4 m/s 758 mmHg 72%
    10:00 +33°C° 0 mm 4 m/s 758 mmHg 69%
    11:00 +34°C° 0 mm 4 m/s 758 mmHg 65%
    12:00 +35°C° 0 mm 4 m/s 758 mmHg 62%
    13:00 +34°C° 0 mm 4 m/s 757 mmHg 62%
    14:00 +34°C° 0 mm 4 m/s 757 mmHg 63%
    15:00 +34°C° 0 mm 4 m/s 756 mmHg 63%
    16:00 +33°C° 0 mm 4 m/s 756 mmHg 67%
    17:00 +32°C° 0 mm 4 m/s 756 mmHg 70%
    18:00 +31°C° 0 mm 3 m/s 756 mmHg 74%
    19:00 +30°C° 0 mm 3 m/s 757 mmHg 77%
    20:00 +30°C° 0 mm 3 m/s 757 mmHg 81%
    21:00 +29°C° 0 mm 3 m/s 758 mmHg 84%
    22:00 +29°C° 0 mm 3 m/s 758 mmHg 86%
    23:00 +29°C° 0 mm 3 m/s 758 mmHg 87%

    3 Março, Terça-feira

    Tempo Temperatura Precipitação Vento Pressão Humidade
    00:00 +29°C° 0 mm 2 m/s 758 mmHg 89%
    01:00 +28°C° 0 mm 2 m/s 757 mmHg 89%
    02:00 +28°C° 0 mm 2 m/s 757 mmHg 90%
    03:00 +28°C° 0 mm 2 m/s 756 mmHg 90%
    04:00 +28°C° 0 mm 2 m/s 756 mmHg 90%
    05:00 +28°C° 0 mm 2 m/s 757 mmHg 90%
    06:00 +28°C° 0 mm 3 m/s 757 mmHg 90%
    07:00 +29°C° 0 mm 3 m/s 757 mmHg 83%
    08:00 +31°C° 0 mm 3 m/s 758 mmHg 75%
    09:00 +33°C° 0 mm 3 m/s 759 mmHg 67%
    10:00 +34°C° 0 mm 3 m/s 759 mmHg 64%
    11:00 +34°C° 0 mm 3 m/s 758 mmHg 62%
    12:00 +35°C° 0 mm 4 m/s 758 mmHg 59%
    13:00 +35°C° 0 mm 4 m/s 757 mmHg 60%
    14:00 +34°C° 0 mm 4 m/s 757 mmHg 60%
    15:00 +34°C° 0 mm 4 m/s 756 mmHg 60%
    16:00 +33°C° 0 mm 4 m/s 756 mmHg 65%
    17:00 +33°C° 0 mm 3 m/s 756 mmHg 69%
    18:00 +31°C° 0 mm 3 m/s 756 mmHg 73%
    19:00 +30°C° 0 mm 3 m/s 757 mmHg 76%
    20:00 +30°C° 0 mm 3 m/s 757 mmHg 80%
    21:00 +29°C° 0 mm 3 m/s 758 mmHg 83%
    22:00 +29°C° 0 mm 3 m/s 758 mmHg 84%
    23:00 +29°C° 0 mm 2 m/s 758 mmHg 85%

    4 Março, Quarta-feira

    Tempo Temperatura Precipitação Vento Pressão Humidade
    00:00 +29°C° 0 mm 2 m/s 758 mmHg 85%
    01:00 +29°C° 0 mm 2 m/s 758 mmHg 86%
    02:00 +28°C° 0 mm 2 m/s 757 mmHg 87%
    03:00 +28°C° 0 mm 2 m/s 757 mmHg 88%
    04:00 +28°C° 0 mm 2 m/s 757 mmHg 88%
    05:00 +28°C° 0 mm 2 m/s 757 mmHg 89%
    06:00 +28°C° 0 mm 2 m/s 757 mmHg 89%
    07:00 +29°C° 0 mm 2 m/s 758 mmHg 81%
    08:00 +31°C° 0 mm 2 m/s 758 mmHg 74%
    09:00 +33°C° 0 mm 3 m/s 759 mmHg 66%
    10:00 +34°C° 0 mm 3 m/s 758 mmHg 64%
    11:00 +34°C° 0 mm 3 m/s 758 mmHg 62%
    12:00 +35°C° 0 mm 4 m/s 758 mmHg 61%
    13:00 +35°C° 0 mm 4 m/s 757 mmHg 61%
    14:00 +35°C° 0 mm 4 m/s 756 mmHg 61%
    15:00 +34°C° 0 mm 4 m/s 756 mmHg 62%
    16:00 +34°C° 0 mm 4 m/s 756 mmHg 65%
    17:00 +33°C° 0 mm 3 m/s 756 mmHg 69%
    18:00 +31°C° 0 mm 3 m/s 756 mmHg 72%
    19:00 +30°C° 0 mm 3 m/s 757 mmHg 76%
    20:00 +30°C° 0 mm 3 m/s 757 mmHg 79%
    21:00 +29°C° 0 mm 3 m/s 758 mmHg 83%
    22:00 +29°C° 0.2 mm 3 m/s 758 mmHg 85%
    23:00 +29°C° 0.2 mm 3 m/s 758 mmHg 86%
    Mostrar mais